{"data":{"norad_id":59717,"epoch":"2026-05-25T03:40:02.676000Z","epoch_age_seconds":65845,"freshness":"FRESH","line1":"1 59717U 24088K   26145.15280875 -.00002057  00000+0 -12133-4 0  9994","line2":"2 59717  53.1574 309.1851 0000894  11.1512 348.9526 15.69703738118281","mean_motion":15.69703738,"eccentricity":8.94e-5,"inclination_deg":53.1574,"raan_deg":309.1851,"arg_perigee_deg":11.1512,"mean_anomaly_deg":348.9526,"bstar":-1.2133e-5,"rev_number":11828,"period_min":91.737056180725,"perigee_km":359.1423033051,"apogee_km":360.34703654768,"semimajor_km":6737.8816699264,"source":"CELESTRAK","updated_at":"2026-05-25T13:38:19.047536Z"}}